Location: Earls Croome
(52.0667°N, 2.2000°W)
Time: 10:42:15
(UTC+00:00)

SL-16 R/B - Pass Details

Date: 17 November 2019
Orbit: 842 x 846 km, 71.0° (Epoch: 12 December)

Event Time Altitude Azimuth Distance (km) Brightness Sun altitude
Exits shadow 04:52:26 37° 332° (NNW) 1,308 2.9 -24.2°
Maximum altitude 04:54:50 87° 59° (ENE) 855 2.1 -23.8°
Drops below altitude 10° 05:00:31 10° 150° (SSE) 2,464 5.0 -22.9°
Sets 05:02:57 0° 150° (SSE) 3,396 5.8 -22.5°
